Location: Olsztyn
(53.7767°N, 20.4765°E)
Time: 21:39:10
(UTC+01:00)

Envisat - Pass Details

Date: 05 December 2022
Orbit: 763 x 765 km, 98.2° (Epoch: 07 February)

Event Time Altitude Azimuth Distance (km) Brightness Sun altitude
Rises 04:02:25 0° 15° (NNE) 3,248 6.5 -30.5°
Reaches altitude 10° 04:04:45 10° 17° (NNE) 2,318 5.7 -30.1°
Enters shadow 04:08:06 42° 24° (NNE) 1,088 3.8 -29.7°
